Notices

What's New in latest Release from April 7th, 2021:

- Updated Glossary, including Speed of Maximum Gust, and Total Hourly Precipitation

- Updated national and regional climate services offices contacts and prices information

- Addition of station inventory lists for 1981-2010, 1971-2000, and 1961-1990 Normals.

If you haven't already, please take our survey and provide feedback about our website: https://eccc.sondage-survey.ca/f/LanguageSelection.aspx?s=442ca660-fcf1-47c0-95a9-59707d6fd709

Hourly Data Report for January 10, 2004

TORONTO CITY
ONTARIO

43°40'00.000" N
79°24'00.000" W
112.50 m
6158355
71508
XTO

Download Data

Hourly Data (January 2004)
Hourly Data Report for January 10, 2004
TIME
LST
Temp Definition
°C
Dew Point Definition
°C
Rel Hum Definition
%
Precip. Amount Definition
mm

Wind Dir Definition
10's deg

Wind Spd Definition
km/h
Visibility Definition
km
Stn Press Definition
kPa
Hmdx Definition


Wind Chill Definition


Weather Definition


00:00 -19.1 -24.5 62   LegendMM LegendMM LegendMM 102.07     LegendNANA
01:00
02:00 -19.3 -25.3 59   LegendMM LegendMM LegendMM 102.06     LegendNANA
03:00 -19.8 -25.6 60   LegendMM LegendMM LegendMM 102.09     LegendNANA
04:00 -19.8 -25.6 60   LegendMM LegendMM LegendMM 102.04     LegendNANA
05:00 -20.0 -26.3 57   LegendMM LegendMM LegendMM 102.01     LegendNANA
06:00 -20.4 -26.3 59   LegendMM LegendMM LegendMM 102.00     LegendNANA
07:00 -20.4 -26.2 60   LegendMM LegendMM LegendMM 102.03     LegendNANA
08:00 -20.7 -26.8 58   LegendMM LegendMM LegendMM 102.06     LegendNANA
09:00 -20.0 -26.9 54   LegendMM LegendMM LegendMM 102.09     LegendNANA
10:00 -18.4 -26.0 51   LegendMM LegendMM LegendMM 102.07     LegendNANA
11:00 -15.6 -25.0 44   LegendMM LegendMM LegendMM 102.05     LegendNANA
12:00 -15.2 -26.1 39   LegendMM LegendMM LegendMM 101.97     LegendNANA
13:00 -13.5 -27.1 31   LegendMM LegendMM LegendMM 101.89     LegendNANA
14:00 -12.8 -26.2 32   LegendMM LegendMM LegendMM 101.80     LegendNANA
15:00 -13.3 -23.1 44   LegendMM LegendMM LegendMM 101.78     LegendNANA
16:00 -12.8 -22.4 44   LegendMM LegendMM LegendMM 101.74     LegendNANA
17:00 -12.4 -20.7 50   LegendMM LegendMM LegendMM 101.69     LegendNANA
18:00 -12.3 -20.1 52   LegendMM LegendMM LegendMM 101.64     LegendNANA
19:00 -11.9 -19.3 54   LegendMM LegendMM LegendMM 101.62     LegendNANA
20:00 -11.9 -18.4 58   LegendMM LegendMM LegendMM 101.56     LegendNANA
21:00 -11.0 -17.5 59   LegendMM LegendMM LegendMM 101.49     LegendNANA
22:00 -10.6 -16.5 62   LegendMM LegendMM LegendMM 101.40     LegendNANA
23:00 -9.8 -15.4 64   LegendMM LegendMM LegendMM 101.31     LegendNANA

Notes on Data Quality.

Legend

  • E = Estimated
  • M = Missing
  • NA = Not Available*
  • [empty] = Indicates an unobserved value
Date modified: